Regional Weather Roundup
Issued by NWS

Home | Current Version | Previous Version | Graphics & Text | Print | Product List | Glossary On
Versions: 1 2 3 4 5 6 7 8 9 10 11 12 13 14 15 16 17 18 19 20 21 22 23 24 25 26 27
000
ASUS45 KPSR 220310
RWRAZ

ARIZONA HOURLY REGIONAL WEATHER ROUNDUP
NATIONAL WEATHER SERVICE PHOENIX AZ
800 PM MST SAT OCT 21 2017

NOTE: FAIR INDICATES FEW OR NO CLOUDS BELOW 12,000 FEET WITH NO
SIGNIFICANT WEATHER AND/OR OBSTRUCTIONS TO VISIBILITY.

AZZ001>003-036-220400-
NORTHWEST ARIZONA

CITY           SKY/WX    TMP DP  RH WIND       PRES   REMARKS
BULLHEAD CITY  CLEAR     73   7   7 N14       30.10R
KINGMAN        CLEAR     54  13  19 E10       30.21R
$$

AZZ004>008-015-016-018-220400-
NORTH CENTRAL ARIZONA

CITY           SKY/WX    TMP DP  RH WIND       PRES   REMARKS
GRAND CANYON   CLEAR     34   4  28 E3        30.34R
WILLIAMS       CLEAR     37   0  20 SE5       30.33R WCI  34
PRESCOTT       CLEAR     51  10  19 CALM      30.23R
FLAGSTAFF      CLEAR     38  11  32 CALM      30.35R
PAYSON         CLEAR     59  12  15 N8        30.25R
PAGE           CLEAR     53  21  28 CALM      30.26R
$$

AZZ009>014-017-220400-
NORTHEAST ARIZONA

CITY           SKY/WX    TMP DP  RH WIND       PRES   REMARKS
WINSLOW        CLEAR     45   1  16 W8        30.27R
SAINT JOHNS    CLEAR     47  11  23 CALM      30.26R
WINDOW ROCK    CLEAR     41   4  21 N3        30.32R
SHOW LOW       CLEAR     46   9  21 CALM      30.32R
$$

AZZ540-542>544-546-548-220400-
GREATER PHOENIX AREA

CITY           SKY/WX    TMP DP  RH WIND       PRES   REMARKS
PHOENIX        CLEAR     79  41  25 W6        30.00R
BUCKEYE        CLEAR     72  19  14 NW9       30.03R
LUKE AFB       CLEAR     73  37  27 CALM      30.00R
DEER VALLEY    CLEAR     73  40  30 CALM      30.02R
SCOTTSDALE     CLEAR     74  40  29 CALM      30.04R
MESA-FALCON    CLEAR     77  41  27 W3        30.04R
MESA-GATEWAY   PTCLDY    72  43  35 CALM      30.04R
CHANDLER       CLEAR     75  43  31 VRB5      30.02R
$$

AZZ539-553-220400-
SOUTHWEST MARICOPA COUNTY AND PINAL COUNTY

CITY           SKY/WX    TMP DP  RH WIND       PRES   REMARKS
CASA GRANDE    NOT AVBL
$$

AZZ503-504-507>509-220400-
SOUTHEAST ARIZONA

CITY           SKY/WX    TMP DP  RH WIND       PRES   REMARKS
TUCSON         CLEAR     73  38  27 NW6       30.10R
DAVIS-MONTHAN  CLEAR     71  38  30 W8        30.08R
RYAN FIELD     CLEAR     68  37  32 NW3       30.10R
NOGALES        CLEAR     65  33  30 NE9       30.13R
SIERRA VISTA   CLEAR     62  34  34 W9        30.20R
DOUGLAS        CLEAR     59  31  34 NW10      30.14R
SAFFORD        CLEAR     68  27  21 NW9       30.07R
$$

AZZ532-220400-
SOUTHWEST ARIZONA

CITY           SKY/WX    TMP DP  RH WIND       PRES   REMARKS
YUMA           CLEAR     77  21  12 N7        30.03R
$$

CAZ041-043-047-048-061-525>527-560>570-220400-
SOUTHERN CALIFORNIA

CITY           SKY/WX    TMP DP  RH WIND       PRES   REMARKS
DOWNTOWN L.A.  CLEAR     70  46  42 CALM      30.04R
L.A. AIRPORT   CLEAR     68  52  56 S5        30.05R
SAN DIEGO      PTCLDY    69  59  70 N3        30.06R
BURBANK        CLEAR     72  41  32 W7        30.06S
ONTARIO        CLEAR     71  42  35 CALM      30.07R
RIVERSIDE      CLEAR     72  43  35 S3        30.08R
PALM SPRINGS   CLEAR     80  21  11 VRB3      30.09R
EL CENTRO NAS  CLEAR     71  29  21 W5        30.06R
IMPERIAL       CLEAR     70  35  27 W3        30.04R
BLYTHE         CLEAR     74  16  11 NW10      30.06R
NEEDLES        CLEAR     75   6   7 N16       30.10R
$$

NVZ020-UTZ003-220400-
SOUTHERN NEVADA-UTAH

CITY           SKY/WX    TMP DP  RH WIND       PRES   REMARKS
LAS VEGAS      PTCLDY    67  16  14 SE3       30.19R
SALT LAKE CITY PTCLDY    49  23  36 S5        30.27S
$$

NMZ009-TXZ055-220400-
NEW MEXICO-WEST TEXAS

CITY           SKY/WX    TMP DP  RH WIND       PRES   REMARKS
ALBUQUERQUE    CLEAR     55   2  11 N17G24    30.23R
EL PASO        CLEAR     73  30  20 W9        30.08R
$$


........................KEY........................
SKY/WX - SKY CONDITION/WEATHER
TMP    - TEMPERATURE IN FAHRENHEIT
DP     - DEW POINT IN FAHRENHEIT
RH     - RELATIVE HUMIDITY IN PERCENT
WIND   - DIRECTION AND SPEED IN MILES PER HOUR (MPH)
VRB    - VARIABLE WIND DIRECTION
PRES   - MEAN SEA LEVEL PRESSURE IN INCHES OF MERCURY
         F - FALLING PRESSURE   R - RISING PRESSURE
         S - STEADY PRESSURE
VSB    - VISIBILITY IN MILES
HX     - HEAT INDEX IN FAHRENHEIT
WCI    - WIND CHILL INDEX IN FAHRENHEIT
TC     - TEMPERATURE IN CELSIUS WHICH IS ALSO KNOWN AS
         TEMPERATURE IN CENTIGRADE
AFB    - AIR FORCE BASE
         LUKE AFB IS LUKE AIR FORCE BASE
         DAVIS-MONTHAN IS DAVIS-MONTHAN AIR FORCE BASE
NAS    - NAVAL AIR STATION
         EL CENTRO NAS IS EL CENTRO NAVAL AIR STATION
N/A    - NOT AVAILABLE





USA.gov is the U.S. government's official web portal to all federal, state and local government web resources and services.